Hourly Weather Pustomyty

Today, 13 July, Monday

Time Temperature Precipitation Wind Pressure Humidity
00:00 +10°C° 0 mm 2 mps 741 mmHg 93%
01:00 +9°C° 0 mm 2 mps 741 mmHg 93%
02:00 +9°C° 0 mm 2 mps 742 mmHg 93%
03:00 +9°C° 0 mm 2 mps 741 mmHg 94%
04:00 +9°C° 0 mm 2 mps 741 mmHg 94%
05:00 +8°C° 0 mm 2 mps 741 mmHg 95%
06:00 +10°C° 0 mm 3 mps 741 mmHg 92%
07:00 +11°C° 0 mm 3 mps 741 mmHg 90%
08:00 +13°C° 0 mm 3 mps 741 mmHg 86%
09:00 +14°C° 0.3 mm 3 mps 741 mmHg 82%
10:00 +15°C° 0.3 mm 4 mps 741 mmHg 77%
11:00 +17°C° 0.3 mm 4 mps 741 mmHg 72%
12:00 +17°C° 0.1 mm 4 mps 741 mmHg 70%
13:00 +18°C° 0.1 mm 4 mps 741 mmHg 69%
14:00 +18°C° 0.1 mm 4 mps 741 mmHg 67%
15:00 +18°C° 0.2 mm 4 mps 740 mmHg 70%
16:00 +17°C° 0.2 mm 3 mps 740 mmHg 73%
17:00 +17°C° 0.2 mm 3 mps 740 mmHg 76%
18:00 +16°C° 0.1 mm 3 mps 739 mmHg 80%
19:00 +15°C° 0.1 mm 2 mps 739 mmHg 83%
20:00 +14°C° 0.1 mm 2 mps 739 mmHg 87%
21:00 +13°C° 0 mm 2 mps 739 mmHg 88%
22:00 +12°C° 0 mm 2 mps 739 mmHg 90%
23:00 +10°C° 0 mm 2 mps 739 mmHg 92%

Tomorrow, 14 July, Tuesday

Time Temperature Precipitation Wind Pressure Humidity
00:00 +10°C° 0 mm 2 mps 739 mmHg 92%
01:00 +10°C° 0 mm 2 mps 739 mmHg 92%
02:00 +9°C° 0 mm 2 mps 739 mmHg 93%
03:00 +9°C° 0 mm 2 mps 739 mmHg 94%
04:00 +9°C° 0 mm 2 mps 739 mmHg 95%
05:00 +9°C° 0 mm 2 mps 738 mmHg 95%
06:00 +10°C° 0 mm 2 mps 739 mmHg 93%
07:00 +13°C° 0 mm 2 mps 739 mmHg 90%
08:00 +14°C° 0 mm 3 mps 739 mmHg 87%
09:00 +16°C° 0 mm 2 mps 739 mmHg 82%
10:00 +17°C° 0 mm 2 mps 739 mmHg 77%
11:00 +19°C° 0 mm 2 mps 738 mmHg 72%
12:00 +19°C° 0.2 mm 2 mps 738 mmHg 70%
13:00 +20°C° 0.2 mm 2 mps 738 mmHg 67%
14:00 +21°C° 0.2 mm 2 mps 738 mmHg 65%
15:00 +20°C° 0.4 mm 2 mps 737 mmHg 68%
16:00 +20°C° 0.4 mm 2 mps 737 mmHg 72%
17:00 +20°C° 0.4 mm 2 mps 737 mmHg 75%
18:00 +19°C° 0.3 mm 2 mps 737 mmHg 79%
19:00 +17°C° 0.3 mm 2 mps 737 mmHg 83%
20:00 +16°C° 0.3 mm 1 mps 737 mmHg 87%
21:00 +15°C° 0 mm 1 mps 737 mmHg 88%
22:00 +14°C° 0 mm 1 mps 737 mmHg 90%
23:00 +13°C° 0 mm 1 mps 737 mmHg 92%

Day after tomorrow, 15 July, Wednesday

Time Temperature Precipitation Wind Pressure Humidity
00:00 +13°C° 0 mm 1 mps 737 mmHg 92%
01:00 +11°C° 0 mm 0 mps 737 mmHg 93%
02:00 +11°C° 0 mm 0 mps 737 mmHg 93%
03:00 +11°C° 0 mm 0 mps 737 mmHg 94%
04:00 +11°C° 0 mm 0 mps 737 mmHg 94%
05:00 +11°C° 0 mm 0 mps 737 mmHg 94%
06:00 +12°C° 0 mm 0 mps 737 mmHg 91%
07:00 +14°C° 0 mm 0 mps 737 mmHg 88%
08:00 +16°C° 0 mm 0 mps 737 mmHg 84%
09:00 +17°C° 0 mm 0 mps 737 mmHg 79%
10:00 +21°C° 0 mm 1 mps 737 mmHg 73%
11:00 +22°C° 0 mm 1 mps 737 mmHg 67%
12:00 +23°C° 0 mm 1 mps 737 mmHg 64%
13:00 +23°C° 0 mm 1 mps 737 mmHg 61%
14:00 +24°C° 0 mm 1 mps 736 mmHg 59%
15:00 +24°C° 0.1 mm 1 mps 736 mmHg 60%
16:00 +24°C° 0.1 mm 1 mps 736 mmHg 61%
17:00 +24°C° 0.1 mm 2 mps 736 mmHg 63%
18:00 +21°C° 0.3 mm 2 mps 736 mmHg 69%
19:00 +21°C° 0.3 mm 1 mps 736 mmHg 75%
20:00 +19°C° 0.3 mm 1 mps 736 mmHg 81%
21:00 +18°C° 0 mm 1 mps 736 mmHg 83%
22:00 +18°C° 0 mm 1 mps 736 mmHg 85%
23:00 +16°C° 0 mm 1 mps 736 mmHg 87%

16 July, Thursday

Time Temperature Precipitation Wind Pressure Humidity
00:00 +15°C° 0 mm 1 mps 736 mmHg 87%
01:00 +15°C° 0 mm 1 mps 735 mmHg 88%
02:00 +14°C° 0 mm 1 mps 735 mmHg 88%
03:00 +14°C° 0 mm 1 mps 735 mmHg 89%
04:00 +14°C° 0 mm 1 mps 735 mmHg 89%
05:00 +14°C° 0 mm 1 mps 735 mmHg 89%
06:00 +15°C° 0 mm 2 mps 735 mmHg 87%
07:00 +17°C° 0 mm 2 mps 735 mmHg 85%
08:00 +18°C° 0 mm 2 mps 735 mmHg 83%
09:00 +20°C° 0 mm 2 mps 735 mmHg 77%
10:00 +21°C° 0 mm 2 mps 735 mmHg 71%
11:00 +23°C° 0 mm 2 mps 735 mmHg 66%
12:00 +24°C° 0.1 mm 2 mps 735 mmHg 64%
13:00 +24°C° 0.1 mm 2 mps 734 mmHg 63%
14:00 +25°C° 0.1 mm 2 mps 734 mmHg 61%
15:00 +24°C° 0.6 mm 2 mps 734 mmHg 65%
16:00 +24°C° 0.6 mm 2 mps 734 mmHg 69%
17:00 +24°C° 0.6 mm 2 mps 734 mmHg 72%
18:00 +21°C° 0.4 mm 3 mps 734 mmHg 78%
19:00 +20°C° 0.4 mm 3 mps 734 mmHg 84%
20:00 +18°C° 0.4 mm 3 mps 734 mmHg 89%
21:00 +17°C° 0 mm 3 mps 734 mmHg 91%
22:00 +17°C° 0 mm 2 mps 734 mmHg 93%
23:00 +16°C° 0 mm 2 mps 734 mmHg 95%

17 July, Friday

Time Temperature Precipitation Wind Pressure Humidity
00:00 +16°C° 0 mm 2 mps 734 mmHg 95%
01:00 +15°C° 0 mm 2 mps 734 mmHg 96%
02:00 +15°C° 0 mm 2 mps 735 mmHg 96%
03:00 +15°C° 0 mm 2 mps 735 mmHg 96%
04:00 +15°C° 0 mm 2 mps 735 mmHg 96%
05:00 +15°C° 0 mm 2 mps 735 mmHg 97%
06:00 +16°C° 0 mm 2 mps 735 mmHg 94%
07:00 +16°C° 0 mm 2 mps 735 mmHg 92%
08:00 +17°C° 0 mm 3 mps 736 mmHg 90%
09:00 +18°C° 0 mm 2 mps 736 mmHg 86%
10:00 +19°C° 0 mm 2 mps 736 mmHg 82%
11:00 +19°C° 0 mm 2 mps 736 mmHg 79%
12:00 +20°C° 0.1 mm 2 mps 736 mmHg 77%
13:00 +20°C° 0.1 mm 2 mps 736 mmHg 75%
14:00 +21°C° 0.1 mm 2 mps 736 mmHg 73%
15:00 +21°C° 0.2 mm 2 mps 735 mmHg 75%
16:00 +20°C° 0.2 mm 3 mps 735 mmHg 76%
17:00 +20°C° 0.2 mm 3 mps 735 mmHg 78%
18:00 +19°C° 0.2 mm 3 mps 735 mmHg 84%
19:00 +18°C° 0.2 mm 3 mps 735 mmHg 89%
20:00 +16°C° 0.2 mm 2 mps 735 mmHg 95%
21:00 +16°C° 0.3 mm 2 mps 735 mmHg 96%
22:00 +16°C° 0.3 mm 2 mps 736 mmHg 96%
23:00 +16°C° 0.3 mm 2 mps 736 mmHg 97%

18 July, Saturday

Time Temperature Precipitation Wind Pressure Humidity
00:00 +16°C° 0.1 mm 1 mps 736 mmHg 97%
01:00 +15°C° 0.1 mm 1 mps 736 mmHg 97%
02:00 +15°C° 0.1 mm 1 mps 736 mmHg 97%
03:00 +15°C° 0.2 mm 1 mps 735 mmHg 97%
04:00 +15°C° 0.2 mm 1 mps 735 mmHg 98%
05:00 +15°C° 0.2 mm 1 mps 735 mmHg 98%
06:00 +16°C° 0.2 mm 2 mps 736 mmHg 97%
07:00 +16°C° 0.2 mm 2 mps 736 mmHg 96%
08:00 +16°C° 0.2 mm 2 mps 736 mmHg 95%
09:00 +17°C° 0.7 mm 2 mps 736 mmHg 96%
10:00 +17°C° 0.7 mm 2 mps 736 mmHg 96%
11:00 +17°C° 0.7 mm 2 mps 736 mmHg 96%
12:00 +18°C° 0.6 mm 2 mps 736 mmHg 96%
13:00 +18°C° 0.6 mm 2 mps 736 mmHg 95%
14:00 +19°C° 0.6 mm 1 mps 736 mmHg 95%
15:00 +18°C° 0.8 mm 2 mps 736 mmHg 95%
16:00 +19°C° 0.8 mm 2 mps 735 mmHg 95%
17:00 +19°C° 0.8 mm 2 mps 735 mmHg 95%
18:00 +19°C° 0.4 mm 1 mps 735 mmHg 95%
19:00 +19°C° 0.4 mm 1 mps 735 mmHg 96%
20:00 +19°C° 0.4 mm 1 mps 735 mmHg 96%
21:00 +19°C° 0.1 mm 1 mps 735 mmHg 95%
22:00 +18°C° 0.1 mm 1 mps 735 mmHg 94%
23:00 +18°C° 0.1 mm 1 mps 736 mmHg 94%
Show more